Regional Weather Roundup
Issued by NWS Binghamton, NY

Home | Current Version | Previous Version | Text Only | Print | Product List | Glossary On
Versions: 1 2 3 4 5 6 7 8 9 10 11 12 13 14 15 16 17 18 19 20 21 22 23 24 25 26 27 28
000
ASUS41 KBGM 260610
RWRBGM

REGIONAL WEATHER ROUNDUP
NATIONAL WEATHER SERVICE BINGHAMTON NY
200 AM EDT FRI MAY 26 2017

Note: "fair" indicates few or no clouds below 12,000 feet with no
significant weather and/or obstructions to visibility.

* = Station(s) that does not report precipitation, such as rain,
snow, etc, also no thunder or fog.

NYZ009-015>018-022>025-036-037-044>046-055>057-062-260700
...Central New York...

CITY           SKY/WX    TMP DP  RH WIND       PRES   REMARKS
Binghamton     LGT RAIN  54  53  97 N3        29.53R
Cortland       CLOUDY    55  55 100 CALM      29.55R
Dansville      CLOUDY    55  54  96 CALM      29.55S
Elmira         CLOUDY    59  56  89 W3        29.51S
Seneca Falls   CLOUDY    59  57  94 CALM      29.53S
Ithaca         CLOUDY    56  55  97 E5        29.54R
Hamilton       CLOUDY    54  50  87 SE3       29.55S
Hornell        CLOUDY    54  54 100 CALM      29.58S FOG
Monticello     CLOUDY    52  52 100 CALM      29.53F
Norwich        CLOUDY    55  50  82 CALM      29.54F
Oneonta        CLOUDY    52 N/A N/A NE7       29.53F
Penn Yan       CLOUDY    56  53  90 CALM      29.53S FOG
Rome           CLOUDY    56  52  86 E3        29.56F
Sidney         CLOUDY    55  55 100 CALM      29.53F
Syracuse       MOCLDY    55  53  93 NE8       29.53S
$$

PAZ038>040-043-044-047-048-072-260700
...Northeast Pennsylvania...

CITY           SKY/WX    TMP DP  RH WIND       PRES   REMARKS
Hazleton       RAIN      55  54  94 CALM      29.54S
Scranton       CLOUDY    59  56  89 CALM      29.51S
$$
&&
KEY
WCI = Wind Chill Index
VSB = Visibility
HX  = Heat Index
$$




USA.gov is the U.S. government's official web portal to all federal, state and local government web resources and services.